CAPE
188 631 166 4 379 508 161 123 210 344 471 475 328 606 689 567 584 162 852 846 1344 1383 1943 2121 2591 2570 2271 2125 2107 1611 1583 1242 1562 1697 1809 1521 1567 1517 1541 1674 1568 1447 1315 1251 1003 1349 1591 1733 1789
132 529 89 31 162 130 170 290 324 360 365 699 531 147 410 149 271 244 730 691 918 1172 1436 1828 2616 2623 2237 2438 2298 2091 1521 1164 1360 1233 1415 1423 1355 1310 1514 1671 1566 1492 1268 1272 1387 1506 1276 1236 1418
1048 760 58 172 421 225 216 259 238 364 370 530 413 518 236 168 253 396 588 850 738 1022 1376 1678 2394 2555 1985 2021 2483 2271 1562 1192 1435 1610 1414 1471 1482 1615 1522 1618 1468 1432 1394 1201 872 617 962 1164 1094
1887 574 838 431 381 166 201 235 211 223 209 383 251 281 289 245 252 709 717 621 641 859 1353 2296 2112 1809 1792 1974 2197 2368 1856 1541 1481 1372 1417 1626 1323 1647 1549 1394 1690 1513 1500 1375 1256 1131 1057 1044 1032
1218 119 648 1472 130 110 123 132 147 141 169 190 135 281 336 332 211 711 696 562 669 777 1425 1723 2373 2274 1695 1996 1825 1681 1495 1287 1317 1310 1277 1601 1505 1634 1394 1606 1665 1450 1427 1367 1179 1035 1018 1114 1197
258 446 569 281 114 151 97 105 52 77 107 128 158 232 212 231 147 394 857 927 858 884 1269 1301 1967 2251 1546 1903 1561 1598 1496 1449 1564 1501 1612 1762 1683 1637 1734 1542 1343 1231 1183 1201 1169 1054 984 1087 1363
68 51 181 293 82 116 165 116 21 0 101 119 144 110 82 155 151 468 796 813 660 703 611 807 1205 1043 1716 1463 1558 1470 1462 1559 1552 1599 1482 1061 1458 1910 1854 1462 1258 1066 1058 1127 1198 1257 1298 1384 1700
96 139 201 160 94 107 72 83 35 0 0 64 132 68 0 0 40 20 717 634 431 305 459 693 801 776 898 1077 1344 1435 1790 1411 1570 1588 1063 1432 1883 1769 1461 1875 1840 1156 1145 1196 1221 1333 1633 1944 2002
174 275 229 166 284 39 43 36 16 0 0 10 64 9 0 0 0 0 255 216 152 298 283 413 708 767 718 740 1181 1731 1475 1518 1850 1217 882 1921 1414 1183 1137 1536 1493 1392 1279 1290 1424 1893 2588 1444 296
331 329 334 147 56 74 54 10 41 10 5 2 0 0 0 0 0 0 12 58 51 100 266 244 350 349 398 630 1004 1118 1116 986 1178 1030 630 1264 1097 923 971 1403 2444 1569 1509 1647 2492 2832 1937 1233 207
152 422 451 131 100 130 39 22 99 32 12 0 0 0 0 0 0 0 0 0 2 9 127 59 51 136 197 217 359 491 792 674 407 543 689 704 831 860 952 1332 1616 1426 1760 1266 1378 1702 1523 978 215
433 501 395 72 248 58 50 51 92 1 0 0 0 0 0 0 0 0 0 0 0 11 11 9 2 44 81 48 128 375 506 542 121 372 531 368 714 985 886 1057 847 841 860 722 879 776 952 533 118
626 196 220 66 80 106 145 210 85 19 6 0 0 0 0 0 0 0 0 0 0 0 8 7 11 1 82 38 60 366 515 318 109 310 704 598 866 564 792 534 990 972 1040 652 1105 911 731 449 178
176 171 110 76 64 69 187 161 356 289 28 8 0 0 0 0 0 0 0 0 0 0 0 34 12 97 145 38 44 194 270 96 49 267 178 537 823 605 395 403 443 626 910 925 469 313 599 598 503
135 58 129 86 35 89 89 130 46 130 122 2 10 0 0 0 0 0 0 0 0 0 0 0 0 14 249 25 50 10 24 44 60 231 17 359 438 1095 631 548 478 501 843 643 572 1121 1491 793 506
87 15 33 32 33 41 158 62 2 28 117 253 102 0 0 0 0 0 0 0 0 0 0 0 0 0 265 23 3 131 0 2 0 247 189 89 303 594 856 738 1062 1454 966 539 1014 787 1090 684 412
9 0 1 18 24 16 40 308 11 103 361 380 187 131 28 0 2 17 0 0 0 0 0 0 0 0 105 117 14 58 27 0 0 262 241 123 283 576 1688 1497 1705 1357 856 1559 832 770 1040 372 101
41 113 62 73 101 30 32 116 53 64 316 338 371 225 90 57 115 108 127 116 0 0 0 0 0 0 92 212 36 0 2 0 0 0 203 265 174 775 1218 1310 1894 1324 1227 986 1079 985 635 400 142
251 117 275 281 134 135 126 501 268 150 36 28 377 375 225 83 138 200 212 147 41 0 0 0 1 5 64 115 205 1 0 0 0 72 182 551 579 1057 1979 1285 1383 1453 848 792 679 990 790 520 169
137 112 24 93 141 263 89 97 353 249 41 68 120 462 439 282 321 296 248 228 193 54 0 0 0 126 56 66 7 115 0 0 30 71 207 852 1119 1455 1669 1215 1071 985 723 520 253 495 544 347 136
205 81 27 8 413 317 211 121 115 249 136 171 376 547 559 457 347 377 262 224 316 286 128 80 56 263 80 116 0 0 9 16 150 94 708 1136 1691 1678 1473 1103 797 424 208 86 123 723 336 225 78
22 5 0 0 121 71 138 239 123 14 106 191 216 632 608 604 408 466 420 303 309 364 328 314 406 442 47 107 0 0 0 175 432 269 1429 1641 2168 2168 1675 1565 1158 374 16 0 207 933 522 19 0
0 4 2 53 50 46 120 0 0 73 45 205 162 178 264 676 724 618 543 641 436 444 495 483 538 564 224 120 51 1 72 109 1672 2022 1945 1977 1708 1331 1696 1513 757 577 464 671 862 541 210 0 0
29 32 137 36 6 6 22 24 0 167 19 0 0 19 205 506 685 750 766 668 618 786 770 562 659 614 662 176 514 240 595 813 1002 1076 1120 1255 1425 1112 1109 1357 1178 799 789 741 641 627 572 479 254
6 11 12 16 46 40 23 22 7 0 0 0 0 8 443 421 489 695 768 749 617 1050 1147 1148 992 803 784 597 220 868 398 362 438 453 388 405 810 899 709 667 642 523 408 540 390 376 439 366 144
42 43 0 3 3 4 8 0 10 0 0 0 0 6 433 264 309 906 1035 877 729 1126 1122 604 455 1689 1034 897 586 513 432 145 215 262 159 217 191 220 377 435 224 194 120 164 173 102 73 63 40
0 0 0 0 0 13 0 4 8 0 0 0 0 0 171 496 522 734 1290 1098 1120 1034 997 686 739 1283 1811 1376 908 699 468 309 357 275 321 159 120 12 56 103 41 38 55 59 15 29 33 98 92
0 0 0 0 0 0 0 0 0 0 0 0 0 0 1 562 614 531 931 1379 1531 1573 1531 1166 1503 1856 2026 1567 991 882 872 729 346 334 227 0 5 0 128 80 117 29 10 10 24 42 20 41 25
0 0 0 0 0 0 0 0 0 0 0 0 0 55 333 755 757 883 1183 1508 1604 1737 1617 1690 1854 1800 1633 1349 1128 1027 954 793 462 478 100 28 1 6 16 29 16 5 1 2 5 12 16 23 19
0 0 0 0 0 0 0 0 0 0 0 0 44 42 1125 1220 1109 1123 1124 1219 1384 1503 1460 1606 1480 1524 1640 1271 1122 979 824 640 565 471 154 142 24 11 8 37 15 0 0 0 0 0 32 4 16
CIN
-115 -70 -184 -134 -166 -93 -23 -26 -12 -19 -26 -23 -65 -172 -125 -47 -106 -278 -88 -29 -60 -39 -2 -1 0 0 0 0 0 -1 -1 -4 0 0 0 0 0 0 0 0 0 0 0 0 0 0 0 0 0
-80 -84 -216 -85 -87 -34 -55 -8 -17 -33 -31 -17 -34 -366 -101 -116 -221 -249 -142 -96 -97 -73 -31 -7 0 0 0 0 0 0 0 -1 0 -2 0 0 0 -1 0 0 0 0 0 0 0 0 0 0 0
-63 -73 -130 -132 -101 -97 -12 -46 -29 -22 -20 -12 -134 -93 -112 -193 -164 -170 -149 -89 -107 -80 -48 -13 0 0 0 0 0 0 0 -2 -1 0 0 0 0 0 0 0 0 0 0 0 0 -14 -7 -7 -14
-69 -157 -63 -85 -37 -59 -13 -18 -37 -20 -4 -17 -44 -91 -99 -135 -146 -100 -92 -34 -115 -99 -61 0 0 0 0 0 0 0 0 0 0 0 0 0 -3 0 0 0 0 0 0 0 0 0 -7 -15 -25
-57 -119 -14 -58 -16 -8 -6 -17 -8 -6 -13 -16 -102 -87 -88 -61 -124 -67 -74 -85 -128 -114 -62 -21 0 0 0 0 0 0 0 0 0 0 0 0 -1 0 0 0 0 0 0 0 -5 -9 -13 -18 -23
-88 -39 -39 -43 -3 -9 -15 -11 -11 -9 -34 -42 -109 -122 -105 -83 -119 -94 -95 -87 -102 -123 -59 -41 0 0 0 0 0 0 0 0 0 0 0 0 0 0 0 0 0 -2 -13 -14 -20 -27 -31 -30 -25
-259 -32 -45 -62 -36 -22 -5 -14 -6 0 -30 -46 -101 -141 -141 -127 -105 -71 -82 -93 -115 -122 -104 -71 -10 -2 0 0 0 0 0 0 0 0 0 0 0 0 0 0 -8 -26 -36 -41 -47 -45 -41 -36 -25
-413 -282 -205 -93 -53 -16 -7 -3 -4 0 0 -68 -56 -38 0 0 -124 -140 -43 -81 -129 -184 -131 -78 -37 -6 0 -1 0 0 0 0 0 0 -1 0 0 0 -2 0 -5 -46 -56 -62 -67 -68 -54 -21 -4
-292 -187 -185 -56 -35 -20 -11 -18 -8 0 0 -7 -16 -30 0 0 0 0 -96 -169 -189 -129 -170 -128 -89 -32 -19 -16 -1 -1 0 0 0 -3 -16 0 -10 -25 -37 -33 -42 -53 -66 -75 -74 -66 -28 -15 -38
-225 -163 -88 -52 -68 -62 -3 -23 -15 -35 -7 -11 0 0 0 0 0 0 -3 -170 -211 -179 -114 -148 -111 -112 -82 -38 -19 -7 -4 -15 -10 -24 -46 -20 -33 -48 -73 -73 -27 -60 -69 -67 -51 -54 -14 -45 -76
-9 -146 -75 -51 -29 -15 -18 -6 -1 -20 -73 0 0 0 0 0 0 0 -1 0 -6 -121 -142 -153 -176 -141 -116 -91 -98 -78 -44 -57 -78 -59 -51 -54 -38 -29 -76 -71 -70 -96 -89 -112 -110 -121 -60 -67 -25
-190 -141 -64 -6 -14 -17 -14 -13 -61 -6 0 0 0 0 0 0 0 0 0 0 0 -25 -60 -17 -70 -149 -126 -201 -145 -109 -96 -84 -152 -113 -69 -36 -78 -39 -45 -60 -77 -11 -16 -176 -86 -81 -61 -49 -47
-172 -4 -22 -8 -4 -11 -37 -24 -12 -23 -13 0 0 0 0 0 0 0 0 0 0 0 -19 -38 -58 -11 -130 -224 -192 -85 -79 -83 -145 -87 -81 -69 -34 -9 -16 -13 -33 -35 -27 -63 -47 -69 -44 -41 -79
-55 -10 -65 -25 -5 -2 -14 -18 -34 -55 -35 -56 0 0 0 0 0 0 0 0 0 0 0 -143 -68 -145 -133 -122 -141 -74 -48 -113 -150 -119 -71 -31 -45 -57 -45 -39 -45 -35 -52 -56 -18 -34 -69 -31 -14
-151 -167 -14 -56 -22 -41 -20 -17 -65 -11 -58 -19 -7 0 0 0 0 0 0 0 0 0 0 0 -1 -124 -92 -115 -101 -16 -25 -76 -100 -93 -173 -40 -76 -45 -64 -78 -53 -6 -89 -31 -50 -66 -58 -54 -79
-156 -194 -46 -136 -1 -72 -52 -109 -8 -216 -32 -65 -51 0 0 0 0 0 0 0 0 0 0 0 0 0 -92 -162 -55 -105 0 -2 0 -84 -148 -127 -82 -39 -47 -44 -55 -34 -23 -36 -34 -16 -90 -53 -91
-77 0 -2 -127 -133 -104 -93 -135 -32 -246 -164 -50 -41 -48 -10 0 -9 -12 0 0 0 0 0 0 0 0 -127 -139 -184 -141 -72 0 0 -85 -138 -143 -117 -95 -41 -63 -33 -34 -23 -51 -14 -129 -74 -41 -86
-15 -183 -215 -192 -125 -5 -107 -138 -20 -441 -214 -21 -58 -12 -40 -85 -81 -87 -89 -85 0 0 0 0 0 0 -145 -148 -175 0 -53 0 0 0 -122 -135 -134 -86 -67 -44 -38 -21 -25 -20 -60 -64 -110 -52 -61
-244 -117 -96 -67 -98 -52 -98 -190 -215 -114 -83 -143 -37 -27 -68 -204 -88 -84 -97 -130 -138 0 0 0 -71 -122 -228 -173 -136 -110 0 0 0 -90 -82 -92 -91 -83 -45 -40 -48 -7 -14 -16 -79 -60 -53 -36 -28
-100 -59 -22 -53 -25 -58 -89 -109 -197 -107 -12 -107 -95 -59 -65 -175 -137 -113 -90 -96 -116 -113 0 0 0 -326 -296 -247 -214 -132 0 0 -71 -58 -87 -83 -87 -45 -49 -24 -34 -15 -6 -18 -26 -110 -48 -49 -105
-75 -19 -9 0 -42 -87 -120 -22 -185 -134 -121 -216 -15 -35 -48 -26 -25 -152 -60 -75 -115 -91 -110 -119 -119 -300 -332 -248 0 0 -94 -86 -45 -53 -67 -60 -48 -47 -45 -33 -27 -46 -79 -61 -53 -96 -95 -90 -130
-2 -5 0 0 -23 -34 -103 -35 -220 -63 -30 -38 -45 -23 -33 -12 -42 -21 -183 -110 -126 -78 -83 -79 -59 -336 -374 -264 0 0 0 -99 -32 -17 -87 -131 -65 -47 -35 -18 -19 -45 -30 0 -109 -63 -55 -52 0
0 -2 -1 -4 -12 -62 -45 0 0 -228 -111 -28 -20 -13 -29 -85 -13 -42 -25 -9 -131 -113 -137 -86 -53 -35 -68 -340 -283 -124 -211 -124 -66 -83 -102 -119 -132 -121 -129 -31 -14 -38 -185 -117 -38 -44 -37 0 0
-54 -41 -30 -2 -19 -256 -31 -55 0 -99 -40 0 0 -146 -137 -103 -74 -30 -12 -24 -52 -88 -91 -28 -80 -85 -49 -186 -168 -162 -72 -79 -56 -40 -51 -44 -42 -29 -18 -16 -27 -17 -18 -18 -27 -15 -9 -7 -24
-22 -19 -6 -4 -63 -86 -31 -19 -41 0 0 0 0 -92 -185 -156 -89 -72 -41 -16 -82 -157 -119 -99 -68 -52 -33 -51 -88 -124 -82 -60 -47 -82 -48 -46 -25 -18 -28 -44 -42 -22 -27 -17 -53 -38 -13 -3 -14
-46 -60 0 -4 -39 -3 -27 0 -84 0 0 0 0 -113 -137 -172 -169 -116 -52 -55 -78 -328 -173 -374 -453 -73 -56 -53 -20 -125 -32 -32 -254 -133 -98 -23 -17 -24 -6 -14 -36 -39 -70 -40 -5 -28 -10 -12 -11
0 0 0 0 0 -1 0 -68 -74 0 0 0 0 0 -135 -127 -145 -148 -107 -59 -237 -191 -103 -308 -129 -75 -28 -87 -2 -20 -64 -55 -56 -188 -28 -79 -133 -124 -48 -17 -17 -74 -39 -29 -76 -17 -27 -14 -21
0 0 0 0 0 0 0 0 0 0 0 0 0 0 -88 -156 -162 -143 -155 -114 -31 -21 -23 -31 -82 -94 -34 -53 -20 -16 -29 -57 -80 -171 -21 0 -144 0 -70 -77 -16 -45 -80 -58 -57 -18 -25 -17 -3
0 0 0 0 0 0 0 0 0 0 0 0 -15 -357 -262 -163 -180 -167 -128 -134 -80 -33 -15 -22 -28 -45 -49 -26 -49 -23 -22 -58 -89 -92 -167 -204 -201 -331 -264 -108 -18 -9 -138 -17 0 -19 -8 -10 -28
-1 0 0 0 0 0 0 0 0 0 0 0 -339 -344 -174 -182 -190 -173 -142 -166 -198 -145 -50 0 -1 -31 -5 -1 -5 -5 -30 -25 -77 -90 -103 -130 -374 -176 -222 -116 -54 0 0 0 0 -1 -14 -58 -21
Wind_Speed
15 12 9 nan 8 17 16 10 9 6 8 10 14 10 13 21 2 1 4 8 7 2 1 2 5 3 4 5 2 1 1 1 2 2 1 1 3 4 6 6 6 8 9 10 9 11 10 9 9
9 12 nan nan 18 21 20 12 12 13 14 21 14 2 9 11 12 6 9 11 9 5 1 2 3 3 3 3 2 2 0 1 1 3 5 4 5 5 5 3 4 7 8 10 7 8 8 8 9
3 16 nan 18 20 20 12 13 15 13 10 16 2 13 9 2 3 10 11 8 7 3 2 2 4 3 3 0 2 2 1 1 3 2 5 6 4 7 4 2 5 3 5 6 6 8 9 7 11
4 11 18 25 23 18 21 18 20 15 6 10 10 2 5 2 13 4 8 4 1 3 4 5 6 4 4 1 2 2 1 1 1 3 5 5 5 4 5 5 4 2 5 5 5 8 10 9 11
8 6 25 19 13 12 18 35 28 18 12 9 5 1 5 5 1 8 11 5 6 4 3 5 5 5 3 2 2 2 2 0 1 1 3 4 5 4 5 5 3 1 5 5 6 7 8 11 12
7 12 21 14 17 12 nan 14 nan nan 17 9 2 3 8 4 6 3 10 11 9 6 4 7 5 6 4 5 3 2 3 3 3 2 4 5 6 5 6 6 3 4 6 4 7 8 8 9 11
nan nan 21 23 nan 15 16 18 nan nan 18 16 9 5 nan 7 5 5 9 14 11 9 8 6 4 3 7 6 5 4 2 3 1 3 4 6 7 6 6 6 4 4 6 5 7 10 10 8 8
nan 7 12 15 nan 9 nan nan nan nan nan nan 22 nan nan nan nan nan 7 14 13 11 10 8 6 1 2 2 5 2 1 1 4 3 5 7 7 8 8 6 5 7 9 9 9 12 11 8 8
12 10 15 18 6 nan nan nan nan nan nan nan nan nan nan nan nan nan 6 11 10 9 9 9 10 4 4 3 3 3 3 3 3 3 7 7 2 3 8 7 11 10 10 11 9 10 9 9 14
14 19 23 20 nan nan nan nan nan nan nan nan nan nan nan nan nan nan nan nan nan 12 11 8 7 9 6 7 3 2 2 3 2 1 3 1 1 3 8 8 15 11 10 10 12 13 4 11 8
15 21 20 24 23 14 nan nan nan nan nan nan nan nan nan nan nan nan nan nan nan nan 11 nan nan 9 10 5 2 1 2 2 2 1 3 5 4 6 7 5 4 4 7 2 6 7 3 7 6
20 27 24 nan 20 nan nan nan nan nan nan nan nan nan nan nan nan nan nan nan nan nan nan nan nan nan nan nan 1 3 4 3 3 6 10 8 6 9 14 12 6 2 2 1 1 2 8 7 11
37 18 14 nan nan 9 17 16 nan nan nan nan nan nan nan nan nan nan nan nan nan nan nan nan nan nan nan nan nan 3 5 7 8 10 11 9 7 10 12 12 9 5 2 3 6 9 10 14 14
6 14 24 nan nan nan 13 6 7 4 nan nan nan nan nan nan nan nan nan nan nan nan nan nan nan nan 13 nan nan 7 9 nan nan 13 14 13 11 11 13 10 5 6 10 10 9 6 16 20 18
3 nan 18 nan nan nan nan 9 nan 7 6 nan nan nan nan nan nan nan nan nan nan nan nan nan nan nan 15 nan nan nan nan nan nan 15 nan 14 15 15 17 13 8 5 10 15 14 11 9 16 19
nan nan nan nan nan nan 10 nan nan nan 6 10 22 nan nan nan nan nan nan nan nan nan nan nan nan nan 19 nan nan 14 nan nan nan 19 19 nan 17 16 16 13 10 9 14 19 21 23 14 9 13
nan nan nan nan nan nan nan 14 nan 10 14 11 9 20 nan nan nan nan nan nan nan nan nan nan nan nan 21 19 nan nan nan nan nan 23 22 19 20 22 20 15 10 19 20 22 21 22 21 22 17
nan 25 nan nan 11 nan nan 16 nan nan 8 13 9 6 nan nan 23 26 26 21 nan nan nan nan nan nan nan 22 nan nan nan nan nan nan 25 24 22 22 26 22 18 22 24 24 25 25 22 20 23
21 14 16 23 29 20 11 31 35 25 nan nan 19 10 13 nan 16 22 23 25 nan nan nan nan nan nan nan 22 23 nan nan nan nan nan 26 30 25 26 30 27 30 28 28 27 23 23 28 20 20
25 21 nan nan 12 27 nan nan 39 32 nan nan 40 28 23 23 11 23 25 24 29 nan nan nan nan 31 nan nan nan 25 nan nan nan nan 27 28 29 30 33 40 35 32 30 31 26 24 23 28 32
26 nan nan nan 25 30 24 13 29 33 32 42 45 40 36 39 33 20 29 21 40 35 38 nan nan 38 nan 31 nan nan nan nan 25 nan 29 28 30 33 38 45 39 31 35 nan 30 28 26 30 nan
nan nan nan nan 9 nan 22 22 18 nan 11 33 45 56 56 48 45 35 36 31 35 31 33 32 32 27 nan 43 nan nan nan 30 30 30 31 33 37 42 46 43 44 35 nan nan 31 33 32 nan nan
nan nan nan nan nan nan 16 nan nan nan nan 23 22 23 27 40 50 43 40 38 33 40 35 43 29 34 31 43 nan nan nan 32 37 36 41 42 41 42 44 43 41 43 31 36 38 37 37 nan nan
nan nan 18 nan nan nan nan nan nan 28 nan nan nan nan 22 14 38 46 45 44 39 55 44 31 32 25 39 40 36 28 36 39 39 40 39 40 46 43 46 45 49 49 43 39 39 40 37 36 36
nan nan nan nan nan nan nan nan nan nan nan nan nan nan 19 17 16 35 45 41 42 38 32 17 32 34 40 35 45 40 42 41 42 39 33 34 51 49 45 43 48 55 57 50 42 39 39 38 36
nan nan nan nan nan nan nan nan nan nan nan nan nan nan 35 32 25 35 43 49 50 51 47 34 31 31 43 40 48 33 38 38 35 49 54 43 52 36 34 29 41 50 52 52 43 41 nan nan nan
nan nan nan nan nan nan nan nan nan nan nan nan nan nan 35 35 32 32 37 52 51 53 53 52 38 31 45 42 43 38 40 39 36 36 40 34 28 nan nan 32 nan nan nan nan nan nan nan nan nan
nan nan nan nan nan nan nan nan nan nan nan nan nan nan nan 28 29 34 42 42 43 49 50 50 46 44 48 44 47 47 45 36 27 35 37 nan nan nan 31 nan 17 nan nan nan nan nan nan nan nan
nan nan nan nan nan nan nan nan nan nan nan nan nan nan 35 38 37 38 39 41 46 54 53 48 48 49 51 49 50 52 44 32 24 32 25 nan nan nan nan nan nan nan nan nan nan nan nan nan nan
nan nan nan nan nan nan nan nan nan nan nan nan nan nan 38 40 42 43 43 45 49 50 52 55 53 49 40 43 48 42 38 37 27 32 23 22 nan nan nan nan nan nan nan nan nan nan nan nan nan
Wind_Direction
39 1 17 nan 25 68 65 355 339 304 266 273 276 256 203 156 164 78 281 282 296 313 161 308 324 305 341 350 19 100 203 313 319 360 59 131 78 53 52 46 53 64 49 58 53 57 63 62 65
65 61 nan nan 76 43 108 300 309 317 312 292 262 130 150 130 79 302 301 329 298 223 178 204 322 307 338 20 37 85 98 259 35 71 106 89 62 48 48 25 39 49 52 63 70 80 82 82 92
2 111 nan 51 65 39 345 323 334 343 357 316 358 47 110 62 269 122 335 349 1 224 308 6 306 304 339 20 66 60 69 83 84 92 84 75 64 71 34 70 48 75 80 82 88 103 106 117 107
93 94 86 82 88 26 349 1 357 12 11 302 332 174 61 59 142 168 328 336 280 258 313 315 300 292 282 343 64 57 70 97 136 77 70 52 57 44 17 62 69 122 153 134 95 104 116 106 104
339 151 81 43 1 14 7 7 358 27 4 308 273 214 208 234 272 354 308 316 286 270 282 268 277 269 278 314 290 283 294 17 41 51 55 36 46 4 42 46 22 74 149 125 117 94 107 107 109
98 79 104 68 314 7 nan 350 nan nan 344 333 351 58 114 3 30 60 313 310 300 306 281 270 298 278 315 308 322 305 334 7 321 46 45 20 15 18 20 17 41 75 100 114 105 100 88 99 116
nan nan 112 103 nan 354 26 16 nan nan 3 14 17 60 nan 102 98 354 315 316 316 310 300 283 256 296 320 326 345 344 347 291 319 357 13 22 13 4 8 34 21 36 70 71 82 80 78 77 99
nan 337 88 106 nan 346 nan nan nan nan nan nan 360 nan nan nan nan nan 349 309 323 320 305 304 283 286 296 352 344 12 337 338 356 347 4 12 10 359 9 32 29 43 61 59 54 65 64 77 180
125 114 64 80 34 nan nan nan nan nan nan nan nan nan nan nan nan nan 350 313 317 320 316 329 323 341 340 6 33 15 13 347 345 358 7 20 351 3 27 46 25 37 55 62 69 65 47 272 248
59 76 56 47 nan nan nan nan nan nan nan nan nan nan nan nan nan nan nan nan nan 329 336 340 344 335 341 0 0 125 135 207 184 151 62 316 345 351 4 25 9 32 57 58 68 72 53 303 300
67 33 49 55 33 7 nan nan nan nan nan nan nan nan nan nan nan nan nan nan nan nan 341 nan nan 348 347 342 26 214 214 226 178 320 322 348 319 335 339 313 353 51 80 130 62 69 345 302 308
95 68 65 nan 32 nan nan nan nan nan nan nan nan nan nan nan nan nan nan nan nan nan nan nan nan nan nan nan 347 346 299 286 272 304 329 337 328 327 300 291 293 5 91 195 145 251 295 271 248
77 113 60 nan nan 346 333 24 nan nan nan nan nan nan nan nan nan nan nan nan nan nan nan nan nan nan nan nan nan 293 293 294 304 296 314 311 309 309 315 315 270 276 303 280 278 287 290 298 298
82 164 141 nan nan nan 234 200 234 222 nan nan nan nan nan nan nan nan nan nan nan nan nan nan nan nan 309 nan nan 271 290 nan nan 296 308 322 294 284 299 316 291 264 280 290 275 293 294 314 334
337 nan 162 nan nan nan nan 218 nan 227 124 nan nan nan nan nan nan nan nan nan nan nan nan nan nan nan 283 nan nan nan nan nan nan 294 nan 300 291 290 295 287 282 282 277 300 290 258 256 296 321
nan nan nan nan nan nan 240 nan nan nan 269 67 11 nan nan nan nan nan nan nan nan nan nan nan nan nan 292 nan nan 274 nan nan nan 280 285 nan 293 291 287 285 257 255 289 280 296 293 279 289 284
nan nan nan nan nan nan nan 9 nan 63 20 24 33 22 nan nan nan nan nan nan nan nan nan nan nan nan 297 295 nan nan nan nan nan 281 287 290 290 291 287 284 263 267 271 287 293 291 304 301 291
nan 41 nan nan 103 nan nan 225 nan nan 124 145 78 113 nan nan 351 350 352 351 nan nan nan nan nan nan nan 291 nan nan nan nan nan nan 291 295 290 289 283 281 277 274 281 284 282 292 294 291 296
54 61 52 65 48 28 24 359 11 348 nan nan 118 53 51 nan 2 352 4 355 nan nan nan nan nan nan nan 293 292 nan nan nan nan nan 292 301 295 289 287 284 271 271 277 280 273 284 287 286 280
47 46 nan nan 8 6 nan nan 352 350 nan nan 35 32 35 357 9 346 344 338 332 nan nan nan nan 329 nan nan nan 294 nan nan nan nan 283 295 297 293 285 275 279 282 279 277 275 283 274 276 281
49 nan nan nan 13 22 14 21 352 14 11 9 32 27 19 355 12 16 350 327 330 326 329 nan nan 322 nan 324 nan nan nan nan 274 nan 273 284 289 289 284 283 280 281 291 nan 283 279 275 268 nan
nan nan nan nan 355 nan 359 20 24 nan 31 11 27 17 5 350 5 17 5 353 344 321 329 324 328 315 nan 312 nan nan nan 281 275 276 273 269 269 268 270 279 274 278 nan nan 273 273 276 nan nan
nan nan nan nan nan nan 29 nan nan nan nan 37 356 345 342 348 359 356 357 2 336 344 353 327 321 319 333 324 nan nan nan 286 281 275 275 270 261 257 263 275 281 276 271 272 274 276 276 nan nan
nan nan 56 nan nan nan nan nan nan 347 nan nan nan nan 327 330 342 351 352 345 335 342 346 331 337 337 332 325 304 299 292 281 278 276 269 266 259 253 255 258 267 272 273 271 273 275 278 277 278
nan nan nan nan nan nan nan nan nan nan nan nan nan nan 345 11 333 321 342 335 310 322 323 280 350 334 326 313 312 304 300 277 299 287 291 273 275 253 248 254 264 263 258 261 265 269 268 268 272
nan nan nan nan nan nan nan nan nan nan nan nan nan nan 351 345 341 310 317 322 327 320 326 333 342 336 315 306 306 307 305 314 309 302 307 315 303 276 274 271 274 273 274 268 257 273 nan nan nan
nan nan nan nan nan nan nan nan nan nan nan nan nan nan 334 335 322 312 316 321 321 321 325 328 336 319 304 305 306 312 308 311 310 318 330 319 298 nan nan 303 nan nan nan nan nan nan nan nan nan
nan nan nan nan nan nan nan nan nan nan nan nan nan nan nan 324 322 316 317 317 318 318 321 324 324 323 312 308 303 303 306 310 310 322 313 nan nan nan 323 nan 316 nan nan nan nan nan nan nan nan
nan nan nan nan nan nan nan nan nan nan nan nan nan nan 330 324 323 317 313 311 309 310 308 303 302 302 305 302 295 295 296 301 298 300 297 nan nan nan nan nan nan nan nan nan nan nan nan nan nan
nan nan nan nan nan nan nan nan nan nan nan nan nan nan 323 319 318 317 317 309 303 298 294 292 287 279 289 293 295 294 284 284 284 285 281 304 nan nan nan nan nan nan nan nan nan nan nan nan nan